Home   Weather   Asuncion   Past weeks

Flag for Paraguay Past Weather in Asuncion, Paraguay — Yesterday and Last 2 Weeks

Now
57 °F

Clear.


Feels Like: 57 °F
Forecast: 59 / 96 °F
Wind: No wind

Location: Asuncion / Aeropuerto

Current Time: Sep 28, 2016 at 6:17:04 AM

Latest Report: Sep 28, 2016 at 5:00 AM


Visibility: 6 mi

Pressure: 29.92 "Hg

Humidity: 82%

Dew Point: 52 °F

Location of AsuncionLocation

Past Weather in Asuncion — Graph

°F

Asuncion Temperature Yesterday

Maximum temperature yesterday: 91 °F (at 3:00 PM)
Minimum temperature yesterday: 52 °F (at 6:00 AM)
Average temperature yesterday: 74 °F

High & Low Weather Summary for the Past Weeks

 TemperatureHumidityPressure
High95 °F (Sep 17, 3:00 PM)88% (Sep 13, 10:00 PM)30.21 "Hg (Sep 13, 10:00 PM)
Low48 °F (Sep 15, 4:00 AM)15% (Sep 26, 12:00 PM)29.65 "Hg (Sep 13, 5:00 AM)
Average71 °F51%30.00 "Hg
* Reported Sep 13 5:00 AM — Sep 28 5:00 AM, Asuncion, Weather by CustomWeather, © 2016

Note: Actual official high and low records may vary slightly from our data, if they occured in-between our weather recording intervals... More about our weather records

Advertising

Asuncion Weather History for the Previous 24 Hours

Scroll right to see more
 ConditionsComfort  
Time TempWeatherWind HumidityBarometerVisibility
5:00 AM
Wed, Sep 28
57 °FClear.No wind82%29.92 "Hg6 mi
4:00 AM57 °FClear.No wind82%29.89 "Hg6 mi
3:00 AM57 °FClear.No wind82%29.89 "Hg6 mi
2:00 AM59 °FClear.No wind77%29.89 "Hg6 mi
1:00 AM61 °FClear.No wind77%29.89 "Hg6 mi
11:00 PM
Tue, Sep 27
64 °FClear.No wind64%29.89 "Hg6 mi
10:00 PM68 °FClear.No wind56%29.92 "Hg6 mi
9:00 PM73 °FClear.7 mph44%29.92 "Hg6 mi
8:00 PM75 °FClear.3 mph39%29.89 "Hg6 mi
7:00 PM79 °FClear.6 mph34%29.89 "Hg6 mi
6:00 PM82 °FClear.5 mph28%29.86 "Hg6 mi
5:00 PM90 °FPassing clouds.6 mph22%29.86 "HgN/A
4:00 PM91 °FPassing clouds.3 mph18%29.89 "HgN/A
3:00 PM91 °FPassing clouds.3 mph16%29.89 "HgN/A
2:00 PM90 °FSunny.3 mph17%29.92 "Hg10 mi
1:00 PM90 °FSunny.3 mph20%29.95 "Hg10 mi
12:00 PM90 °FSunny.3 mph20%29.98 "Hg10 mi
11:00 AM88 °FPassing clouds.5 mph22%30.01 "HgN/A
10:00 AM88 °FPassing clouds.6 mph27%30.01 "HgN/A
9:30 AM84 °FPassing clouds.7 mph31%30.01 "HgN/A
9:00 AM82 °FPassing clouds.7 mph35%30.01 "HgN/A
8:30 AM81 °FPassing clouds.7 mph34%30.01 "HgN/A
8:00 AM75 °FPassing clouds.7 mph39%30.01 "HgN/A
7:00 AM63 °FSunny.No wind68%30.01 "Hg10 mi
6:00 AM52 °FClear.No wind88%29.98 "Hg6 mi
Weather by CustomWeather, © 2016

See weather overviewHow to use our weather pages